Regional Weather Roundup
Issued by NWS

Home | Current Version | Previous Version | Text Only | Print | Product List | Glossary On
Versions: 1 2 3 4 5 6 7 8 9 10 11 12 13 14 15 16 17 18 19 20 21 22 23 24 25 26 27 28 29 30 31 32 33 34 35 36 37 38 39 40 41 42 43 44 45 46 47 48 49 50
000
ASUS45 KABQ 281501
RWRNM
WEATHER ROUNDUP FOR NEW MEXICO
NATIONAL WEATHER SERVICE ALBUQUERQUE NM
900 AM MDT MON JUL 28 2014

NOTE: "FAIR" MEANS FEW OR NO CLOUDS BELOW 12,000 FEET AGL WITH NO
       SIGNIFICANT WEATHER OR OBSTRUCTIONS TO VISION.

      THIS PRODUCT IS RELEASED AS TWO VERSIONS.  ONE VERSION NEAR
      THE TOP OF THE HOUR CONTAINING PRELIMINARY DATA FROM ALBUQUERQUE
      AND OTHER STATIONS.  A FINAL VERSION WITH ADDITIONAL DATA IS
      ISSUED ABOUT 10 MINUTES AFTER THE HOUR.

NMZ501-503-504-510>518-281600-
NORTHWEST PLATEAU/NORTHCENTRAL MOUNTAINS

CITY           SKY/WX    TMP DP  RH WIND       PRES   REMARKS
FARMINGTON     PTSUNNY   71  58  63 E8        30.39S
LOS ALAMOS     MOSUNNY   64  51  64 CALM      30.54S
SANTA FE       CLOUDY    66  55  67 S7        30.49R
TAOS           PTSUNNY   61  54  77 NW3       30.54R

$$
NMZ402-403-502-505>509-281600-
WESTCENTRAL MOUNTAINS/SOUTHWEST MOUNTAINS

CITY           SKY/WX    TMP DP  RH WIND       PRES   REMARKS
GALLUP         CLOUDY    66  54  65 VRB5      30.45R

$$
NMZ407-409-411-412-281600-
SOUTHERN DESERTS

CITY           SKY/WX    TMP DP  RH WIND       PRES   REMARKS
LORDSBURG      FAIR      73  59  60 SE8       30.30R
DEMING         CLOUDY    74  62  66 E8        30.30R
LAS CRUCES     CLOUDY    72  62  71 CALM      30.33R
HOLLOMAN AFB   CLOUDY    70  66  88 S6        30.33R
T OR C         CLOUDY    72 N/A N/A NW7       30.35R

$$
NMZ519>523-281600-
CENTRAL VALLEYS/CENTRAL HIGHLANDS

CITY           SKY/WX    TMP DP  RH WIND       PRES   REMARKS
ALBUQUERQUE    CLOUDY    75  54  47 E12       30.40S
DOUBLE EAGLE   CLOUDY    70  54  56 E12       30.45R
CLINES CORNERS PTSUNNY   64  54  69 E16       30.52S
BELEN          PTSUNNY   73  57  57 SE12      30.39F
SOCORRO        FAIR      71  58  63 CALM      30.39S

$$
NMZ524>526-539-540-281600-
SOUTHCENTRAL MOUNTAINS

CITY           SKY/WX    TMP DP  RH WIND       PRES   REMARKS
RUIDOSO        NOT AVBL

$$
NMZ527>531-281600-
NORTHEAST HIGHLANDS/NORTHEAST PLAINS

CITY           SKY/WX    TMP DP  RH WIND       PRES   REMARKS
LAS VEGAS      PTSUNNY   62  51  67 CALM      30.53S
RATON          NOT AVBL
CLAYTON        LGT RAIN  62  59  90 S10       30.43R

$$
NMZ532>537-281600-
EASTCENTRAL PLAINS

CITY           SKY/WX    TMP DP  RH WIND       PRES   REMARKS
TUCUMCARI      PTSUNNY   69  58  67 E12       30.38S
CANNON AFB     MOSUNNY   71  56  60 E16       30.39R
CLOVIS AIRPORT NOT AVBL

$$
NMZ028-029-538-281600-
SOUTHEAST PLAINS

CITY           SKY/WX    TMP DP  RH WIND       PRES   REMARKS
ROSWELL        CLOUDY    76  58  53 NW14      30.31S
ARTESIA        CLOUDY    75  57  53 N22       30.29S
CARLSBAD       CLOUDY    80  58  46 N18       30.26R
HOBBS          MOSUNNY   82  57  42 W8        30.30S


$$


USA.gov is the U.S. government's official web portal to all federal, state and local government web resources and services.